RH
89 91 84 76 68 68 62 52 48 45 44 43 45 59 66 60 48 51 52 56 59 53 69 96 92 97 93 91 78 54 54 50 45
100 93 90 85 80 83 72 63 56 53 53 45 48 50 62 68 54 50 55 61 64 66 68 100 100 100 100 97 75 61 51 56 48
57 98 94 92 94 92 83 78 68 66 62 57 50 51 60 67 60 57 55 60 64 79 75 83 100 100 99 82 64 62 62 54 50
45 70 98 100 100 99 92 86 79 72 76 67 68 64 61 72 76 74 72 70 71 70 80 76 77 97 100 100 92 88 65 60 49
37 46 52 85 100 100 100 97 92 87 90 88 72 73 71 72 86 82 75 75 75 72 77 65 63 95 100 100 90 82 71 66 39
18 28 43 67 94 99 95 93 100 100 100 92 88 89 82 74 82 90 88 79 73 53 50 58 66 100 100 100 93 97 86 64 48
18 19 30 40 50 62 87 100 100 100 100 100 100 95 92 91 85 90 97 93 85 81 64 67 87 99 100 99 100 100 100 96 72
26 22 27 38 50 65 72 89 100 100 100 100 100 100 100 100 100 100 100 91 86 99 100 100 98 96 85 99 98 100 100 100 87
32 35 41 71 81 86 86 91 100 100 100 100 100 100 100 100 100 100 98 83 96 100 100 86 70 67 86 100 88 70 99 94 82
37 37 37 33 32 72 96 86 95 99 100 100 100 100 100 100 100 100 100 98 92 76 79 65 89 60 100 96 74 60 49 74 51
59 42 42 36 35 49 95 100 94 83 100 100 100 99 100 100 100 100 100 100 100 98 85 87 95 100 96 86 66 77 60 59 55
56 53 49 41 32 26 36 59 100 100 100 100 100 100 100 100 100 100 100 100 100 100 98 99 100 100 100 100 100 77 65 54 52
53 56 58 47 43 36 27 27 29 96 99 100 89 83 98 100 100 100 100 100 100 95 100 98 90 100 100 99 91 59 47 47 53
49 47 60 61 54 51 40 30 29 28 65 99 89 81 98 100 100 100 100 100 98 100 100 100 100 94 89 86 68 57 46 49 53
52 56 45 53 52 54 49 41 36 31 46 94 95 83 99 90 94 100 100 100 100 100 96 100 100 100 97 78 58 56 50 69 100
44 44 46 45 43 40 48 46 50 42 38 53 82 83 80 99 100 100 100 100 100 100 100 93 100 100 91 75 84 72 51 83 78
39 41 36 36 40 39 43 46 40 54 53 45 41 58 98 100 100 100 99 96 100 100 100 100 89 100 99 97 90 78 53 58 88
32 32 33 38 42 39 38 35 32 37 55 50 42 35 47 81 92 100 100 100 100 100 100 100 100 100 100 93 95 90 96 64 100
29 27 33 40 37 42 43 42 36 35 38 49 43 44 41 65 87 100 100 100 100 100 94 100 100 100 100 100 100 100 93 80 97
29 28 36 42 41 33 38 45 50 41 29 38 49 61 52 51 81 100 100 100 100 100 95 100 100 100 100 100 100 100 85 98 95
Wind_Speed
42 39 34 32 30 31 30 30 28 26 25 23 21 22 22 23 24 22 21 21 22 19 15 17 19 19 20 20 21 21 22 24 26
45 44 43 41 39 37 37 36 34 31 30 27 26 26 24 22 23 25 25 22 21 19 18 17 20 22 18 18 21 23 22 23 24
52 50 48 46 44 42 41 39 39 36 34 32 31 30 28 24 23 26 27 26 23 21 20 23 20 20 21 21 21 24 25 28 27
56 54 52 51 48 47 47 45 43 42 39 38 36 35 33 31 29 28 30 29 27 25 24 25 27 22 27 21 24 26 25 28 33
57 57 58 55 53 51 50 50 48 46 44 42 42 39 38 37 33 33 32 32 29 28 25 24 26 32 26 23 26 27 29 27 26
53 57 58 58 58 56 55 54 53 51 48 48 47 44 43 42 41 38 35 34 33 30 29 29 29 33 29 24 25 28 28 27 30
48 51 55 58 59 60 58 57 56 55 56 52 50 50 48 47 47 43 39 37 38 36 35 35 36 36 23 27 30 30 31 26 32
45 48 51 52 56 59 60 59 59 58 57 55 56 52 51 49 49 48 44 41 42 41 39 39 36 27 29 31 30 25 28 35 34
43 45 49 51 52 54 57 60 60 60 61 61 58 55 53 54 55 52 48 45 44 42 38 33 35 31 33 34 32 34 33 38 39
41 40 43 47 53 58 57 59 62 61 59 61 61 60 60 59 57 57 54 49 48 42 40 38 33 36 39 39 36 38 41 43 40
42 43 46 51 51 50 55 55 59 60 64 64 64 63 59 61 59 57 55 55 51 45 43 44 36 38 36 39 44 45 46 40 41
51 49 52 54 52 50 51 58 58 59 62 63 63 65 64 62 59 58 54 53 52 49 42 39 39 31 38 40 43 43 37 35 38
51 50 50 53 51 51 50 53 56 61 64 66 61 58 62 62 59 58 58 60 57 51 47 42 36 41 38 45 45 41 42 39 37
57 56 55 53 50 51 52 52 56 58 63 65 62 60 58 58 59 62 65 62 58 56 52 40 46 47 49 49 51 49 40 38 39
61 61 60 57 58 52 53 55 59 58 61 66 67 61 58 55 59 63 61 60 59 57 52 48 50 50 55 56 54 43 43 42 42
67 65 65 63 58 59 56 55 57 58 59 61 65 65 61 58 56 58 62 57 57 57 60 62 56 59 62 56 51 49 47 44 49
72 70 69 67 66 66 64 61 56 57 64 63 60 63 67 61 59 59 62 60 57 57 60 62 64 65 61 55 57 52 49 49 47
74 71 70 70 71 71 70 68 66 64 62 63 62 57 61 70 62 66 69 64 62 61 61 66 68 66 61 62 64 58 47 50 50
76 76 75 76 73 74 75 75 71 69 64 63 66 63 59 67 71 74 74 75 66 66 67 67 66 67 67 67 62 58 53 50 53
82 80 80 80 80 78 76 77 77 76 72 69 66 68 70 65 72 77 80 78 72 73 70 68 68 69 72 72 70 67 58 54 58
Wind_Direction
257 257 260 262 263 271 273 275 273 272 273 275 280 281 285 296 301 303 307 310 318 323 314 324 320 312 301 301 308 316 320 334 337
257 258 260 262 261 266 269 273 273 274 274 273 275 278 282 282 290 295 299 304 306 310 304 306 320 310 307 310 307 308 317 325 332
255 255 257 260 260 263 267 269 272 272 274 272 271 272 275 279 281 285 290 293 295 296 294 296 310 312 315 312 315 310 311 322 321
252 252 253 255 258 262 265 264 267 269 274 278 272 272 271 274 278 280 285 285 286 287 289 287 296 308 317 312 316 316 311 313 319
248 252 255 256 256 259 261 263 263 264 269 272 276 274 273 272 275 277 281 285 290 291 290 289 297 313 314 315 307 314 319 313 320
251 251 252 254 256 256 259 262 263 266 266 271 274 272 274 274 270 272 277 282 284 290 289 288 297 307 307 323 308 315 317 316 317
255 253 254 256 257 258 257 259 262 263 267 268 273 275 271 272 272 270 273 277 280 282 284 287 291 296 303 314 321 313 315 309 317
256 256 256 257 259 260 260 255 258 262 265 267 273 272 273 274 274 271 275 279 278 279 284 284 289 288 301 303 305 309 310 314 307
259 254 255 256 259 262 261 260 258 258 262 265 269 271 273 273 277 278 279 280 282 286 287 288 286 285 292 291 294 292 302 303 309
260 259 255 261 264 261 263 262 261 261 260 263 265 268 273 275 276 277 277 282 283 284 285 283 285 288 288 290 290 293 291 297 309
262 264 264 269 272 260 261 263 262 261 262 262 262 266 270 271 275 276 279 279 283 284 284 286 286 295 294 291 294 293 295 304 299
257 263 264 270 272 271 263 263 263 262 263 265 264 264 265 267 272 275 276 278 279 282 283 283 281 288 303 299 283 293 295 300 298
255 257 261 263 268 273 272 267 263 260 263 265 268 270 266 267 268 272 274 277 279 278 278 280 279 289 287 283 284 291 297 297 299
253 253 256 261 263 269 272 270 269 268 264 263 269 275 269 266 265 270 274 274 274 275 277 271 285 279 279 277 279 284 292 295 298
251 254 259 259 259 267 264 273 273 270 266 264 268 271 268 268 268 269 267 268 272 273 269 266 278 273 273 280 281 287 288 294 293
252 253 256 259 261 262 262 265 272 275 273 268 266 267 267 267 267 265 265 267 270 271 268 264 269 271 273 277 277 281 284 289 291
255 256 256 261 262 263 266 268 270 270 277 272 269 266 264 260 264 265 268 269 272 274 268 266 268 272 270 275 275 283 284 283 286
257 259 261 261 263 264 267 266 269 266 268 270 270 270 264 263 261 259 261 265 269 271 271 269 269 270 267 269 274 279 279 281 278
258 261 262 264 264 266 267 270 270 269 268 263 265 272 267 266 260 257 258 261 265 270 270 268 267 270 270 270 277 273 284 279 275
259 261 262 264 266 267 269 269 270 272 269 270 270 274 271 264 258 257 257 257 262 260 269 269 266 265 268 269 265 269 272 278 278